Change the Weather History Date:

Thursday, December 20, 2012

  Actual Average Record
Temperature  
Mean Temperature 86 °F -  
Max Temperature 95 °F 97 °F 107 °F (2011)
Min Temperature 77 °F 77 °F 73 °F (2007)
Cooling Degree Days 21    
Growing Degree Days 36 (Base 50)    
Moisture  
Dew Point 75 °F    
Average Humidity 69    
Maximum Humidity 94    
Minimum Humidity 39    
Precipitation  
Precipitation 0.00 in 0.06 in - ()
Sea Level Pressure  
Sea Level Pressure 29.66 in    
Wind  
Wind Speed 8 mph ()    
Max Wind Speed 21 mph    
Max Gust Speed -    
Visibility 6.4 miles    
Events      
Averages and records for this station are not official NWS values.
T = Trace of Precipitation, MM = Missing Value Source: Averaged Metar Reports

Daily Weather History Graph

Daily Weather History Graph

Search for Another Location

Airport or City:

Trip Planner

Search our weather history database for the weather conditions in past years. The results will help you decide how hot, cold, wet, or windy it might be!

Date:

Astronomy

Dec. 20, 2012 Rise Set
Actual Time 5:22 AM AWST 6:44 PM AWST
Civil Twilight 4:57 AM AWST 7:08 PM AWST
Nautical Twilight 4:28 AM AWST 7:38 PM AWST
Astronomical Twilight 3:57 AM AWST 8:08 PM AWST
Moon 12:00 PM AWST (12/20) No Moon Set
Length of Visible Light 14h 11m
Length of Day
13h 22m
Waxing Crescent, 49% of the Moon is Illuminated
Dec 20
Waxing Crescent
Dec 20
First Quarter
Dec 28
Full
Jan 5
Last Quarter
Jan 12
New

Hourly Weather History & Observations

Time (AWST) Temp. Heat Index Dew Point Humidity Pressure Visibility Wind Dir Wind Speed Gust Speed Precip Events Conditions
12:00 AM 81 °F - 76 °F 79% 29.67 in - West 8.1 mph - -  
12:00 AM 80.6 °F 86.2 °F 75.2 °F 84% 29.65 in 6.2 mi West 8.1 mph - N/A   Unknown
12:30 AM 80.6 °F 86.2 °F 75.2 °F 84% 29.65 in 6.2 mi West 5.8 mph - N/A   Unknown
1:00 AM 78.8 °F - 75.2 °F 89% 29.62 in 6.2 mi NW 6.9 mph - N/A   Unknown
1:30 AM 78.8 °F - 75.2 °F 89% 29.62 in 6.2 mi NW 8.1 mph - N/A   Unknown
2:00 AM 80 °F - 76 °F 84% 29.63 in - WNW 8.1 mph - -  
2:00 AM 80.6 °F 87.1 °F 77.0 °F 89% 29.62 in 6.2 mi WNW 8.1 mph - N/A   Unknown
2:30 AM 78.8 °F - 75.2 °F 89% 29.62 in 6.2 mi West 8.1 mph - N/A   Unknown
3:00 AM 80 °F - 76 °F 86% 29.63 in - West 4.6 mph - -  
3:00 AM 80.6 °F 87.1 °F 77.0 °F 89% 29.62 in 6.2 mi West 4.6 mph - N/A   Unknown
3:30 AM 78.8 °F - 75.2 °F 89% 29.62 in 6.2 mi West 4.6 mph - N/A   Unknown
4:00 AM 78.8 °F - 75.2 °F 89% 29.62 in 6.2 mi Calm Calm - N/A   Unknown
4:30 AM 78.8 °F - 75.2 °F 89% 29.62 in - Calm Calm - N/A   Unknown
5:00 AM 78 °F - 75 °F 89% 29.65 in - SE 4.6 mph - -  
5:00 AM 78.8 °F - 75.2 °F 89% 29.65 in - SE 4.6 mph - N/A   Unknown
5:30 AM 77.0 °F - 75.2 °F 94% 29.65 in 6.2 mi Calm Calm - N/A   Scattered Clouds
6:00 AM 79 °F - 75 °F 84% 29.66 in 9 mi Calm Calm - -   Haze
6:00 AM 78.8 °F - 75.2 °F 89% 29.65 in 6.2 mi Calm Calm - N/A   Partly Cloudy
6:30 AM 82.4 °F 92.4 °F 78.8 °F 89% 29.65 in 6.2 mi South 2.3 mph - N/A   Partly Cloudy
7:00 AM 86.0 °F 99.3 °F 78.8 °F 79% 29.65 in 6.2 mi WNW 12.7 mph - N/A   Partly Cloudy
7:30 AM 87.8 °F 102.5 °F 78.8 °F 75% 29.65 in 6.2 mi WNW 9.2 mph - N/A   Partly Cloudy
8:00 AM 89 °F - 77 °F 61% 29.68 in - NW 9.2 mph - -  
8:00 AM 87.8 °F 99.7 °F 77.0 °F 70% 29.68 in 6.2 mi NW 9.2 mph - N/A   Partly Cloudy
8:30 AM 89.6 °F 104.7 °F 78.8 °F 70% 29.68 in 6.2 mi North 8.1 mph - N/A   Partly Cloudy
9:00 AM 90 °F - 78 °F 59% 29.70 in 9 mi North 12.7 mph - -   Haze
9:00 AM 89.6 °F 102.2 °F 77.0 °F 66% 29.68 in 6.2 mi North 12.7 mph - N/A   Partly Cloudy
9:30 AM 89.6 °F 102.2 °F 77.0 °F 66% 29.71 in 6.2 mi North 11.5 mph - N/A   Partly Cloudy
10:00 AM 91.4 °F 102.5 °F 75.2 °F 59% 29.68 in 6.2 mi North 12.7 mph - N/A   Partly Cloudy
10:30 AM 89.6 °F 99.8 °F 75.2 °F 62% 29.68 in 6.2 mi North 13.8 mph - N/A   Partly Cloudy
11:00 AM 92 °F - 76 °F 51% 29.70 in - North 13.8 mph - -  
11:00 AM 91.4 °F 105.1 °F 77.0 °F 63% 29.68 in 6.2 mi North 13.8 mph - N/A   Partly Cloudy
11:30 AM 89.6 °F 102.2 °F 77.0 °F 66% 29.68 in 6.2 mi North 15.0 mph - N/A   Partly Cloudy
12:00 PM 90 °F - 76 °F 57% 29.69 in 19 mi North 12.7 mph - -   Haze
12:00 PM 91.4 °F 105.1 °F 77.0 °F 63% 29.68 in 6.2 mi North 12.7 mph - N/A   Partly Cloudy
12:30 PM 91.4 °F 105.1 °F 77.0 °F 63% 29.68 in 6.2 mi North 12.7 mph - N/A   Partly Cloudy
1:00 PM 91.4 °F 102.5 °F 75.2 °F 59% 29.65 in 6.2 mi NNW 13.8 mph - N/A   Partly Cloudy
1:30 PM 93.2 °F 107.2 °F 77.0 °F 59% 29.65 in 6.2 mi NNW 16.1 mph - N/A   Partly Cloudy
2:00 PM 93 °F - 75 °F 46% 29.65 in - NW 17.3 mph - -  
2:00 PM 93.2 °F 105.0 °F 75.2 °F 56% 29.65 in 6.2 mi NW 17.3 mph - N/A   Partly Cloudy
2:30 PM 93.2 °F 105.0 °F 75.2 °F 56% 29.62 in 6.2 mi NNW 18.4 mph - N/A   Partly Cloudy
3:00 PM 94 °F - 75 °F 46% 29.63 in 19 mi NW 20.7 mph - -   Partly Cloudy
3:00 PM 95.0 °F 107.4 °F 75.2 °F 53% 29.62 in - NW 20.7 mph - N/A   Clear
3:30 PM 91.4 °F 102.5 °F 75.2 °F 59% 29.62 in 6.2 mi NNW 20.7 mph - N/A   Unknown
4:00 PM 91.4 °F 102.5 °F 75.2 °F 59% 29.59 in 6.2 mi NNW 19.6 mph - N/A   Unknown
4:30 PM 89.6 °F 102.2 °F 77.0 °F 66% 29.59 in 6.2 mi NW 20.7 mph - N/A   Unknown
5:00 PM 89 °F - 76 °F 59% 29.63 in - NW 17.3 mph - -  
5:00 PM 89.6 °F 102.2 °F 77.0 °F 66% 29.62 in 6.2 mi NW 17.3 mph - N/A   Unknown
5:30 PM 87.8 °F 99.7 °F 77.0 °F 70% 29.62 in 6.2 mi NW 16.1 mph - N/A   Unknown
6:00 PM 87 °F - 75 °F 60% 29.68 in - West 3.5 mph - -  
6:00 PM 87.8 °F 97.6 °F 75.2 °F 66% 29.68 in 6.2 mi West 3.5 mph - N/A   Unknown
6:30 PM 86.0 °F 95.1 °F 75.2 °F 70% 29.71 in 6.2 mi West 5.8 mph - N/A   Unknown
7:00 PM 86.0 °F 95.1 °F 75.2 °F 70% 29.71 in 6.2 mi WNW 9.2 mph - N/A   Unknown
7:30 PM 86.0 °F 95.1 °F 75.2 °F 70% 29.68 in 6.2 mi WNW 13.8 mph - N/A   Unknown
8:00 PM 87 °F - 75 °F 60% 29.70 in - WNW 12.7 mph - -  
8:00 PM 86.0 °F 95.1 °F 75.2 °F 70% 29.68 in 6.2 mi WNW 12.7 mph - N/A   Unknown
8:30 PM 87.8 °F 95.6 °F 73.4 °F 62% 29.68 in 6.2 mi West 12.7 mph - N/A   Unknown
9:00 PM 87 °F - 66 °F 39% 29.71 in - WSW 9.2 mph - -  
9:00 PM 87.8 °F 90.4 °F 66.2 °F 49% 29.71 in 6.2 mi WSW 9.2 mph - N/A   Unknown
9:30 PM 86.0 °F 88.2 °F 66.2 °F 51% 29.68 in 5.6 mi WNW 9.2 mph - N/A   Unknown
9:49 PM 86.0 °F 88.2 °F 66.2 °F 51% 29.71 in 3.7 mi NW 8.1 mph - N/A   Unknown
10:00 PM 84.2 °F 87.3 °F 68.0 °F 58% 29.71 in 3.7 mi NW 8.1 mph - N/A   Unknown
10:30 PM 84.2 °F 88.4 °F 69.8 °F 62% 29.68 in - North 9.2 mph - N/A   Scattered Clouds
11:00 PM 85 °F - 72 °F 58% 29.70 in - NW 8.1 mph - -  
11:00 PM 86.0 °F 93.4 °F 73.4 °F 66% 29.68 in 2.2 mi NW 8.1 mph - N/A   Unknown
11:20 PM 86.0 °F 93.4 °F 73.4 °F 66% 29.68 in 1.3 mi NW 8.1 mph - N/A   Mostly Cloudy
11:30 PM 86.0 °F 95.1 °F 75.2 °F 70% 29.68 in 1.1 mi NNW 5.8 mph - N/A   Mostly Cloudy
11:55 PM 86.0 °F 91.8 °F 71.6 °F 62% 29.71 in - South 16.1 mph - N/A   Scattered Clouds